Location: ???????
(55.4362°N, 38.1183°E)
Time: 21:08:44
(UTC+00:00)

M-CUBED/EXP-1 PRIME - Pass Details

Date: 09 December 2021
Orbit: 426 x 650 km, 101.7° (Epoch: 26 January)

Event Time Altitude Azimuth Distance (km) Brightness Sun altitude
Rises 16:49:03 0° 221° (SW) 2,858 ? -31.2°
Reaches altitude 10° 16:53:33 10° 266° (W) 2,017 ? -31.8°
Maximum altitude 16:54:03 10° 272° (W) 2,011 ? -31.9°
Drops below altitude 10° 16:54:32 10° 279° (W) 2,028 ? -32.0°
Sets 16:59:12 0° 323° (NW) 2,979 ? -32.6°
